AAL3 KLEX-KILM

Flight info

Callsign AAL3
Flight time 0h 53m
Altitude 39000
Route SHIPR TONIO COLZI LIB FAY V296 URRIE
Aircraft B772/H-SDE2E3FGHIJ5LORVWXY/LB1D1

Departure

Time 2026-05-04 21:27
Airport Blue Grass Airport (KLEX)

Arrival

Time 2026-05-04 22:20
Airport Wilmington International Airport (KILM)
Time Latitude Longitude Altitude Speed Heading
2026-05-04 21:22 38.03478 -84.59886 976 ft 0 kts 180°
2026-05-04 21:25 38.03477 -84.59886 976 ft 0 kts 180°
2026-05-04 21:25 38.03465 -84.59898 976 ft 4 kts 254°
2026-05-04 21:25 38.03498 -84.59952 976 ft 11 kts 313°
2026-05-04 21:25 38.03575 -84.60046 975 ft 19 kts 324°
2026-05-04 21:26 38.03723 -84.60108 976 ft 24 kts 351°
2026-05-04 21:26 38.03854 -84.60041 977 ft 19 kts 32°
2026-05-04 21:26 38.03974 -84.59969 978 ft 18 kts 30°
2026-05-04 21:26 38.04076 -84.59869 978 ft 18 kts 39°
2026-05-04 21:27 38.04182 -84.59874 978 ft 15 kts 312°
2026-05-04 21:27 38.04046 -84.60075 978 ft 76 kts 221°
2026-05-04 21:27 38.03386 -84.60817 1162 ft 162 kts 220°
2026-05-04 21:27 38.02283 -84.61269 2503 ft 189 kts 166°
2026-05-04 21:28 38.01275 -84.60314 4065 ft 213 kts 137°
2026-05-04 21:28 38.00489 -84.58855 4582 ft 274 kts 122°
2026-05-04 21:28 37.99717 -84.56658 6479 ft 285 kts 118°
2026-05-04 21:28 37.98958 -84.54388 8304 ft 296 kts 118°
2026-05-04 21:29 37.98135 -84.51922 9995 ft 313 kts 118°
2026-05-04 21:29 37.97277 -84.49336 11648 ft 329 kts 117°
2026-05-04 21:29 37.96291 -84.46704 13194 ft 344 kts 124°
2026-05-04 21:29 37.95024 -84.44034 14732 ft 363 kts 125°
2026-05-04 21:30 37.93658 -84.41224 16290 ft 381 kts 124°
2026-05-04 21:30 37.92254 -84.38329 17805 ft 398 kts 123°
2026-05-04 21:30 37.90778 -84.35284 19310 ft 413 kts 123°
2026-05-04 21:30 37.89253 -84.32138 20805 ft 427 kts 123°
2026-05-04 21:31 37.86008 -84.25449 23412 ft 458 kts 122°
2026-05-04 21:31 37.84280 -84.21892 24544 ft 475 kts 123°
2026-05-04 21:31 37.82490 -84.18212 25518 ft 493 kts 122°
2026-05-04 21:32 37.80673 -84.14481 26543 ft 507 kts 123°
2026-05-04 21:32 37.78793 -84.10625 27607 ft 518 kts 123°
2026-05-04 21:32 37.76865 -84.06674 28671 ft 527 kts 123°
2026-05-04 21:32 37.74894 -84.02641 29735 ft 534 kts 123°
2026-05-04 21:33 37.72911 -83.98586 30864 ft 538 kts 123°
2026-05-04 21:33 37.70934 -83.94549 32079 ft 536 kts 123°
2026-05-04 21:33 37.68979 -83.90561 33442 ft 528 kts 124°
2026-05-04 21:33 37.67058 -83.86646 34690 ft 521 kts 124°
2026-05-04 21:34 37.65151 -83.82767 35565 ft 518 kts 123°
2026-05-04 21:34 37.63252 -83.78910 36252 ft 518 kts 123°
2026-05-04 21:34 37.61324 -83.74999 37030 ft 518 kts 123°
2026-05-04 21:34 37.59423 -83.71146 37902 ft 516 kts 123°
2026-05-04 21:35 37.57526 -83.67307 38661 ft 515 kts 123°
2026-05-04 21:35 37.55613 -83.63438 38909 ft 524 kts 123°
2026-05-04 21:35 37.53645 -83.59467 38926 ft 536 kts 123°
2026-05-04 21:36 37.49607 -83.51331 38931 ft 549 kts 123°
2026-05-04 21:36 37.45532 -83.43134 38939 ft 551 kts 123°
2026-05-04 21:37 37.41433 -83.34911 38946 ft 552 kts 124°
2026-05-04 21:37 37.37324 -83.26688 38946 ft 553 kts 124°
2026-05-04 21:38 37.33187 -83.18432 38944 ft 554 kts 124°
2026-05-04 21:38 37.29046 -83.10184 38944 ft 554 kts 124°
2026-05-04 21:39 37.24992 -83.01898 38945 ft 555 kts 119°
2026-05-04 21:39 37.21557 -82.93221 38949 ft 555 kts 117°
2026-05-04 21:40 37.18114 -82.84421 38968 ft 556 kts 117°
2026-05-04 21:40 37.14687 -82.75704 38977 ft 557 kts 117°
2026-05-04 21:41 37.11243 -82.66977 38991 ft 557 kts 117°
2026-05-04 21:41 37.07784 -82.58242 38997 ft 557 kts 117°
2026-05-04 21:42 37.04283 -82.49430 39012 ft 558 kts 117°
2026-05-04 21:42 37.00791 -82.40665 39014 ft 559 kts 117°
2026-05-04 21:43 36.97277 -82.31871 39021 ft 558 kts 118°
2026-05-04 21:43 36.93777 -82.23138 39010 ft 558 kts 117°
2026-05-04 21:44 36.90263 -82.14392 39019 ft 559 kts 118°
2026-05-04 21:44 36.86737 -82.05643 39018 ft 558 kts 118°
2026-05-04 21:45 36.83236 -81.96978 39013 ft 558 kts 118°
2026-05-04 21:45 36.79717 -81.88292 39023 ft 558 kts 118°
2026-05-04 21:46 36.76190 -81.79610 39018 ft 558 kts 118°
2026-05-04 21:46 36.72680 -81.70994 39008 ft 558 kts 118°
2026-05-04 21:47 36.69152 -81.62358 39028 ft 557 kts 118°
2026-05-04 21:47 36.65602 -81.53689 39036 ft 558 kts 118°
2026-05-04 21:48 36.62052 -81.45046 39035 ft 557 kts 118°
2026-05-04 21:48 36.58502 -81.36423 39051 ft 558 kts 118°
2026-05-04 21:49 36.54910 -81.27724 39038 ft 557 kts 119°
2026-05-04 21:49 36.51363 -81.19155 39026 ft 556 kts 118°
2026-05-04 21:50 36.47776 -81.10514 39021 ft 557 kts 118°
2026-05-04 21:50 36.44214 -81.01954 39017 ft 557 kts 119°
2026-05-04 21:51 36.40612 -80.93322 39022 ft 558 kts 118°
2026-05-04 21:51 36.37018 -80.84733 39022 ft 558 kts 119°
2026-05-04 21:52 36.33442 -80.76208 39002 ft 558 kts 119°
2026-05-04 21:52 36.29829 -80.67619 39000 ft 558 kts 119°
2026-05-04 21:53 36.26205 -80.59023 39000 ft 558 kts 119°
2026-05-04 21:53 36.22604 -80.50506 38995 ft 557 kts 119°
2026-05-04 21:54 36.18773 -80.42057 38995 ft 558 kts 121°
2026-05-04 21:54 36.14916 -80.33720 38990 ft 557 kts 122°
2026-05-04 21:55 36.11026 -80.25313 38987 ft 557 kts 122°
2026-05-04 21:55 36.07177 -80.17001 38999 ft 557 kts 122°
2026-05-04 21:56 36.03321 -80.08688 38990 ft 556 kts 122°
2026-05-04 21:56 35.99454 -80.00365 38997 ft 557 kts 122°
2026-05-04 21:57 35.95583 -79.92054 38998 ft 557 kts 122°
2026-05-04 21:57 35.91713 -79.83764 38996 ft 557 kts 122°
2026-05-04 21:58 35.87846 -79.75498 39000 ft 558 kts 122°
2026-05-04 21:58 35.83931 -79.67175 38995 ft 557 kts 124°
2026-05-04 21:59 35.79090 -79.59854 38986 ft 548 kts 141°
2026-05-04 21:59 35.73088 -79.54052 39010 ft 543 kts 148°
2026-05-04 22:00 35.67038 -79.48560 39010 ft 543 kts 148°
2026-05-04 22:00 35.60925 -79.43039 39007 ft 543 kts 148°
2026-05-04 22:01 35.54835 -79.37560 39006 ft 544 kts 148°
2026-05-04 22:01 35.48683 -79.32040 38986 ft 543 kts 148°
2026-05-04 22:02 35.42565 -79.26566 38736 ft 546 kts 148°
2026-05-04 22:02 35.39451 -79.23785 38319 ft 549 kts 148°
2026-05-04 22:02 35.36350 -79.21018 37881 ft 549 kts 148°
2026-05-04 22:02 35.33313 -79.18306 37412 ft 534 kts 148°
2026-05-04 22:03 35.30298 -79.15617 36940 ft 525 kts 149°
2026-05-04 22:03 35.27399 -79.13035 36453 ft 516 kts 148°
2026-05-04 22:03 35.24485 -79.10444 35998 ft 509 kts 149°
2026-05-04 22:03 35.21640 -79.07916 35539 ft 504 kts 149°
2026-05-04 22:04 35.18806 -79.05402 35073 ft 498 kts 148°
2026-05-04 22:04 35.15969 -79.02888 34539 ft 494 kts 148°
2026-05-04 22:04 35.13199 -79.00436 33735 ft 494 kts 148°
2026-05-04 22:04 35.10399 -78.97960 32903 ft 494 kts 148°
2026-05-04 22:05 35.07589 -78.95477 31804 ft 499 kts 148°
2026-05-04 22:05 35.04770 -78.92990 30570 ft 507 kts 147°
2026-05-04 22:05 35.01865 -78.90428 29340 ft 514 kts 147°
2026-05-04 22:05 34.99078 -78.87688 28131 ft 522 kts 139°
2026-05-04 22:06 34.96583 -78.84422 26936 ft 529 kts 131°
2026-05-04 22:06 34.94597 -78.81310 25750 ft 525 kts 129°
2026-05-04 22:06 34.92706 -78.78265 24737 ft 511 kts 128°
2026-05-04 22:06 34.90588 -78.74854 23564 ft 497 kts 129°
2026-05-04 22:07 34.88530 -78.71549 22421 ft 483 kts 129°
2026-05-04 22:07 34.86520 -78.68330 21289 ft 471 kts 129°
2026-05-04 22:07 34.84571 -78.65215 20174 ft 460 kts 128°
2026-05-04 22:07 34.82652 -78.62152 19111 ft 452 kts 128°
2026-05-04 22:08 34.80724 -78.59084 18010 ft 457 kts 128°
2026-05-04 22:08 34.78812 -78.56045 16788 ft 451 kts 128°
2026-05-04 22:08 34.76932 -78.53059 15686 ft 439 kts 128°
2026-05-04 22:08 34.75076 -78.50117 14778 ft 437 kts 127°
2026-05-04 22:09 34.73219 -78.47174 13910 ft 433 kts 127°
2026-05-04 22:09 34.71393 -78.44284 13028 ft 430 kts 127°
2026-05-04 22:09 34.69593 -78.41438 12183 ft 426 kts 127°
2026-05-04 22:09 34.67777 -78.38568 11338 ft 422 kts 127°
2026-05-04 22:10 34.66009 -78.35777 10563 ft 416 kts 127°
2026-05-04 22:10 34.64243 -78.32992 9960 ft 406 kts 127°
2026-05-04 22:10 34.62532 -78.30296 9542 ft 394 kts 127°
2026-05-04 22:10 34.60887 -78.27703 9205 ft 382 kts 127°
2026-05-04 22:11 34.59288 -78.25188 8950 ft 369 kts 127°
2026-05-04 22:11 34.57732 -78.22740 8719 ft 356 kts 127°
2026-05-04 22:11 34.56240 -78.20395 8479 ft 345 kts 127°
2026-05-04 22:11 34.54802 -78.18137 8245 ft 335 kts 127°
2026-05-04 22:12 34.53395 -78.15928 7995 ft 326 kts 127°
2026-05-04 22:12 34.52013 -78.13760 7749 ft 318 kts 127°
2026-05-04 22:12 34.50674 -78.11660 7500 ft 311 kts 128°
2026-05-04 22:12 34.49634 -78.10030 7313 ft 306 kts 128°
2026-05-04 22:13 34.48511 -78.08098 7033 ft 297 kts 122°
2026-05-04 22:13 34.47422 -78.06034 6793 ft 282 kts 122°
2026-05-04 22:13 34.46389 -78.04097 6448 ft 260 kts 123°
2026-05-04 22:13 34.45440 -78.02345 6002 ft 241 kts 123°
2026-05-04 22:14 34.44535 -78.00687 5570 ft 228 kts 124°
2026-05-04 22:14 34.43668 -77.99100 5101 ft 224 kts 124°
2026-05-04 22:14 34.42803 -77.97521 4601 ft 220 kts 124°
2026-05-04 22:14 34.41959 -77.95979 4116 ft 217 kts 125°
2026-05-04 22:15 34.41143 -77.94490 3610 ft 210 kts 126°
2026-05-04 22:15 34.40358 -77.93059 3120 ft 198 kts 126°
2026-05-04 22:15 34.39609 -77.91693 2648 ft 189 kts 127°
2026-05-04 22:15 34.38886 -77.90379 2293 ft 181 kts 127°
2026-05-04 22:16 34.38213 -77.89150 2067 ft 169 kts 128°
2026-05-04 22:16 34.37571 -77.87982 1852 ft 161 kts 128°
2026-05-04 22:16 34.36957 -77.86867 1636 ft 154 kts 129°
2026-05-04 22:16 34.36363 -77.85789 1424 ft 153 kts 129°
2026-05-04 22:17 34.35784 -77.84733 1180 ft 142 kts 129°
2026-05-04 22:17 34.35255 -77.83772 1077 ft 134 kts 130°
2026-05-04 22:17 34.34716 -77.82847 1057 ft 134 kts 139°
2026-05-04 22:17 34.33934 -77.82262 1052 ft 131 kts 168°
2026-05-04 22:18 34.33028 -77.82251 1053 ft 131 kts 195°
2026-05-04 22:18 34.32232 -77.82809 1052 ft 134 kts 220°
2026-05-04 22:18 34.31641 -77.83704 1065 ft 136 kts 227°
2026-05-04 22:18 34.30986 -77.84547 1032 ft 138 kts 224°
2026-05-04 22:19 34.30344 -77.85438 835 ft 138 kts 224°
2026-05-04 22:19 34.29698 -77.86294 648 ft 135 kts 225°
2026-05-04 22:19 34.29087 -77.87136 496 ft 131 kts 224°
2026-05-04 22:19 34.28497 -77.87952 323 ft 125 kts 223°
2026-05-04 22:20 34.27935 -77.88694 112 ft 115 kts 219°
2026-05-04 22:20 34.27383 -77.89419 34 ft 106 kts 224°
2026-05-04 22:20 34.26962 -77.89979 36 ft 71 kts 227°
2026-05-04 22:20 34.26695 -77.90346 36 ft 44 kts 226°
2026-05-04 22:21 34.26522 -77.90576 36 ft 34 kts 227°
2026-05-04 22:21 34.26409 -77.90745 35 ft 20 kts 250°
2026-05-04 22:21 34.26481 -77.90894 35 ft 22 kts 290°
2026-05-04 22:21 34.26510 -77.91080 35 ft 17 kts 277°
2026-05-04 22:22 34.26473 -77.91119 35 ft 5 kts 163°
2026-05-04 22:22 34.26464 -77.91109 35 ft 1 kts 99°
2026-05-04 22:22 34.26464 -77.91108 35 ft 0 kts 93°